View from above orbital plane
|
View from above satellite
|
Ground track
|
The orbit data is extracted from the following two-line orbital elements,
1 15495U 85009B 21021.47748631 .00000056 00000-0 38126-5 0 9998
2 15495 82.5228 36.2223 0019011 317.1332 42.8400 14.83893119923743
Epoch (UTC): | 21 January 2021 11:27:34 |
Eccentricity: | 0.0019011 |
inclination: | 82.5228° |
perigee height: | 604 km |
apogee height: | 630 km |
right ascension of ascending node: | 36.2223° |
argument of perigee: | 317.1332° |
revolutions per day: | 14.83893119 |
mean anomaly at epoch: | 42.8400° |
orbit number at epoch: | 92374 |
The dashed part of the orbit path shows where the satellite is in the earth's shadow,
|
|